SCP
1 1 1 1 1 1 1 1 1 1 1 1 1 1 1 1 1 1 1 1 1 1 1 1 1 1 1 1 1 1 1 1 1 1 1 0 0 0 0 0 0 0 0
1 1 1 1 1 1 1 1 1 1 1 1 1 1 1 1 1 1 1 1 1 1 1 1 1 1 1 1 1 1 1 1 1 1 1 0 0 0 0 0 0 0 0
1 1 1 1 1 1 1 1 1 1 1 1 1 1 1 1 1 1 1 1 0 0 0 0 1 1 1 1 1 1 1 1 1 1 1 0 0 0 0 0 0 0 0
0 0 1 1 1 1 1 1 1 1 1 1 1 1 1 1 1 0 0 0 0 0 0 0 0 0 1 1 0 1 1 1 0 0 0 0 0 0 0 0 0 0 0
0 0 0 0 1 1 1 1 1 1 1 1 1 1 1 0 0 0 0 0 0 0 0 0 0 0 0 0 0 0 0 0 0 0 0 0 0 0 0 0 0 0 0
0 0 0 0 0 0 1 1 1 1 1 1 1 1 1 0 0 0 0 0 0 0 0 0 0 0 0 0 0 0 0 0 0 0 0 0 0 0 0 0 0 0 0
0 0 0 0 0 0 0 0 0 0 0 0 0 0 0 0 0 0 0 0 0 0 0 0 0 0 0 0 0 0 0 0 0 0 0 0 0 0 0 0 0 0 0
0 0 0 0 0 0 0 0 0 0 0 0 0 0 0 0 0 0 0 0 0 0 0 0 0 0 0 0 0 0 0 0 0 0 0 0 0 0 0 0 0 0 0
0 0 0 0 0 0 0 0 0 0 0 0 0 0 0 0 0 0 0 0 0 0 0 0 0 0 0 0 0 0 0 0 0 0 0 0 0 0 0 0 0 0 0
0 0 0 0 0 0 0 0 0 0 0 0 0 0 0 0 0 0 0 0 0 0 0 0 0 0 0 0 0 0 0 0 0 0 0 0 0 0 0 0 0 0 0
0 0 0 0 0 0 0 0 0 0 0 0 0 0 0 0 0 0 0 0 0 0 0 0 0 0 0 0 0 0 0 0 0 0 0 0 0 0 0 0 0 0 0
0 0 0 0 0 0 0 0 0 0 0 0 0 0 0 0 0 0 0 0 0 0 0 0 0 0 0 0 0 0 0 0 0 0 0 0 0 0 0 0 0 0 0
0 0 0 0 0 0 0 0 0 0 0 0 0 0 0 0 0 0 0 0 0 0 0 0 0 0 0 0 0 0 0 0 0 0 0 0 0 0 0 0 0 0 0
0 0 0 0 0 0 0 0 0 0 0 0 0 0 0 0 0 0 0 0 0 0 0 0 0 0 0 0 0 0 0 0 0 0 0 0 0 0 0 0 0 0 0
0 0 0 0 0 0 0 0 0 0 0 0 0 0 0 0 0 0 0 0 0 0 0 0 0 0 0 0 0 0 0 0 0 0 0 0 0 0 0 0 0 0 0
0 0 0 0 0 0 0 0 0 0 0 0 0 0 0 0 0 0 0 0 0 0 0 0 0 0 0 0 0 0 0 0 0 0 0 0 0 0 0 0 0 0 0
0 0 0 0 0 0 0 0 0 0 0 0 0 0 0 0 0 0 0 0 0 0 0 0 0 0 0 0 0 0 0 0 0 0 0 0 0 0 0 0 0 0 0
0 0 0 0 0 0 0 0 0 0 0 0 0 0 0 0 0 0 0 0 0 0 0 0 0 0 0 0 0 0 0 0 0 0 0 0 0 0 0 0 0 0 0
0 0 0 0 0 0 0 0 0 0 0 0 0 0 0 0 0 0 0 0 0 0 0 0 0 0 0 0 0 0 0 0 0 0 0 0 0 0 0 0 0 0 0
0 0 0 0 0 0 0 0 0 0 0 0 0 0 0 0 0 0 0 0 0 0 0 0 0 0 0 0 0 0 0 0 0 0 0 0 0 0 0 0 0 0 0
0 0 0 0 0 0 0 0 0 0 0 0 0 0 0 0 0 0 0 0 0 0 0 0 0 0 0 0 0 0 0 0 0 0 0 0 0 0 0 0 0 0 0
0 0 0 0 0 0 0 0 0 0 0 0 0 0 0 0 0 0 0 0 0 0 0 0 0 0 0 0 0 0 0 0 0 0 0 0 0 0 0 0 0 0 0
0 0 0 0 0 0 0 0 0 0 0 0 0 0 0 0 0 0 0 0 0 0 0 0 0 0 0 0 0 0 0 0 0 0 0 0 0 0 0 0 0 0 0
0 0 0 0 0 0 0 0 0 0 0 0 0 0 0 0 0 0 0 0 0 0 0 0 0 0 0 0 0 0 0 0 0 0 0 0 0 0 0 0 0 0 0
0 0 0 0 0 0 0 0 0 0 0 0 0 0 0 0 0 0 0 0 0 0 0 0 0 0 0 0 0 0 0 0 0 0 0 0 0 0 0 0 0 0 0
0 0 0 0 0 0 0 0 0 0 0 0 0 0 0 0 0 0 0 0 0 0 0 0 0 0 0 0 0 0 0 0 0 0 0 0 0 0 0 0 0 0 0
Wind_Speed
8 8 7 6 5 5 3 3 2 3 3 3 3 3 2 2 2 1 1 1 2 2 2 1 2 2 2 2 4 4 4 3 3 3 2 2 2 2 2 1 2 3 3
8 8 8 7 6 5 4 3 3 2 2 2 2 2 2 2 2 2 3 2 2 2 2 2 2 1 1 2 2 3 3 3 2 3 4 4 4 3 1 2 2 2 3
7 7 8 8 8 7 5 4 4 3 2 2 3 3 3 3 2 3 3 4 4 3 3 3 2 2 2 1 1 2 3 3 2 2 3 3 3 3 3 2 2 2 2
7 8 8 8 8 8 7 6 6 5 3 2 3 5 3 3 3 3 4 5 6 5 5 4 4 3 3 2 1 1 1 2 2 1 1 2 1 2 3 3 2 3 2
7 8 8 8 8 8 8 7 7 7 5 4 4 5 5 4 5 5 6 6 6 6 6 5 5 5 4 4 4 4 3 1 1 1 1 0 0 2 2 3 3 2 2
8 8 8 7 8 8 8 7 7 8 6 5 6 6 6 6 7 6 6 5 5 6 8 7 7 6 5 6 6 6 6 5 5 3 2 1 0 0 1 2 3 2 2
7 7 7 7 7 8 8 7 8 8 7 7 7 6 6 7 7 6 6 6 5 6 7 8 8 7 7 7 7 7 7 7 6 5 4 3 3 2 1 1 2 2 2
7 7 7 7 7 7 8 8 8 8 7 7 7 6 6 6 6 7 6 6 6 7 8 9 9 9 8 8 7 7 7 7 7 7 5 3 4 3 2 1 1 2 3
7 7 7 7 7 8 9 8 8 8 8 8 8 8 8 8 9 9 8 7 7 7 9 9 9 9 9 8 8 7 7 7 6 6 5 4 4 3 3 2 1 2 1
7 7 6 7 7 7 8 9 9 9 9 9 8 8 9 9 9 9 10 9 9 9 9 9 9 9 9 8 7 7 7 7 7 6 7 6 5 4 3 3 2 2 2
7 6 6 6 7 7 8 8 9 9 9 10 9 10 10 10 10 9 10 9 9 9 9 9 9 9 9 8 7 8 7 8 7 7 7 7 7 5 4 3 3 3 3
7 7 6 6 7 8 8 9 9 9 9 10 10 10 10 10 10 10 10 9 9 9 9 9 9 9 8 7 7 7 7 7 7 7 7 7 6 6 6 4 5 4 4
8 7 7 7 7 8 8 9 9 9 9 10 10 10 10 10 10 10 9 9 9 9 9 8 8 8 8 7 7 7 7 7 7 7 7 7 6 6 6 5 5 4 3
8 7 7 7 7 8 8 9 9 9 9 9 10 10 9 9 9 9 8 8 8 8 8 7 7 7 7 7 6 6 6 6 7 6 6 7 7 7 6 4 4 4 3
9 8 8 8 8 8 8 9 9 8 8 9 10 9 9 8 9 9 8 8 7 7 7 7 7 7 6 7 6 5 6 6 6 6 6 7 8 8 7 6 6 5 3
10 9 9 9 8 8 8 8 8 8 7 8 8 8 8 8 8 8 7 7 7 7 6 6 6 7 8 8 8 6 5 5 5 5 5 5 4 4 2 3 5 6 5
10 9 9 8 8 8 8 8 8 7 8 8 8 7 7 7 7 7 7 7 7 6 6 6 7 8 9 7 7 8 3 4 4 4 4 4 5 2 4 2 5 3 2
10 9 9 9 8 8 8 7 7 7 7 7 7 7 6 7 6 6 7 6 6 6 6 6 7 7 8 6 6 9 1 4 3 3 4 4 4 6 6 5 3 2 2
9 9 9 9 9 8 8 7 7 7 7 7 6 6 6 6 6 6 6 5 5 5 5 6 6 6 8 7 7 10 1 3 3 3 5 5 5 7 7 5 3 2 1
10 10 10 9 9 8 7 7 7 7 7 6 6 6 6 6 6 6 5 5 4 5 5 6 6 6 7 7 7 11 2 3 2 3 4 7 6 6 7 6 4 4 4
11 11 10 9 8 7 7 7 7 7 6 6 5 6 6 5 5 5 4 4 4 5 4 4 5 6 6 6 7 9 5 5 3 3 4 6 5 4 5 6 5 5 7
12 11 10 9 8 7 7 7 7 6 6 5 6 6 5 4 5 4 4 4 3 3 3 3 4 4 5 5 5 5 5 7 4 4 5 6 4 3 4 4 5 7 9
11 10 10 9 8 6 6 7 6 5 5 5 6 6 5 4 4 3 4 3 2 2 3 3 4 4 4 5 3 2 1 3 4 4 4 3 4 5 3 1 5 6 4
10 9 10 9 8 6 6 6 6 5 5 6 5 5 5 4 4 2 3 3 3 3 3 3 4 4 4 4 3 2 2 3 2 0 3 6 5 4 2 1 2 3 4
10 9 9 9 9 7 6 6 6 5 5 5 5 4 5 5 4 5 5 5 7 7 5 5 4 4 5 7 8 7 7 7 7 7 3 1 2 2 3 4 4 4 4
10 9 9 9 9 8 7 6 5 5 5 5 4 3 3 3 3 5 6 6 5 4 4 5 6 5 6 4 4 4 5 6 8 7 3 3 3 4 4 5 4 4 4
Wind_Direction
57 50 49 51 61 62 71 92 107 126 153 160 167 165 163 145 117 95 109 153 166 168 174 181 167 200 208 216 196 187 169 174 171 170 158 143 117 111 109 105 96 92 78
63 53 52 50 51 53 51 58 62 82 140 153 155 154 136 122 106 86 68 73 87 100 124 125 140 146 166 175 179 185 183 176 198 212 199 194 179 156 119 130 125 111 100
62 56 51 47 44 40 36 46 50 55 78 118 125 123 113 98 84 83 72 60 67 75 81 102 110 107 109 107 139 186 198 189 192 241 249 238 216 154 133 120 101 101 97
65 55 48 46 44 41 40 45 48 50 58 88 116 123 119 110 89 79 75 72 67 69 70 72 77 78 80 89 97 86 174 186 188 177 309 320 336 214 163 143 114 94 85
66 60 52 47 47 46 45 47 51 50 51 62 95 110 101 98 94 90 86 78 70 64 67 71 73 75 75 73 69 64 58 73 74 106 117 91 29 257 222 173 155 135 103
76 67 62 56 51 52 53 51 54 51 49 63 77 90 103 105 105 99 92 84 76 65 61 66 67 69 70 70 69 67 65 63 63 60 48 35 3 215 231 168 175 152 109
86 74 63 56 54 53 55 55 57 55 53 64 77 87 99 103 99 96 92 87 78 69 63 63 62 63 65 69 70 71 68 69 69 65 65 58 49 30 5 147 152 151 138
84 71 63 60 60 59 56 57 57 58 58 67 72 79 86 88 86 85 86 84 80 74 72 70 67 64 64 66 68 71 71 71 71 67 61 65 57 49 39 51 172 188 168
86 74 67 64 63 62 57 55 60 61 59 66 73 74 75 78 83 83 79 77 78 81 75 74 73 68 66 67 68 69 67 68 68 71 68 63 63 54 52 40 342 299 227
91 75 67 65 64 68 68 65 64 65 63 65 70 76 75 76 78 78 77 77 77 76 75 74 73 71 67 66 69 76 72 71 65 59 55 48 55 52 52 48 35 356 341
103 91 81 73 74 76 74 72 70 68 68 68 71 77 78 79 80 79 79 79 78 77 76 74 73 71 68 65 66 70 72 71 69 67 66 57 43 43 50 55 54 43 31
111 104 97 88 80 76 74 71 71 72 72 73 72 72 75 75 75 76 75 76 75 74 74 72 72 71 69 66 69 73 74 74 73 70 68 64 59 50 39 40 51 53 38
117 111 105 96 88 85 83 80 76 74 74 76 75 72 71 72 73 74 74 75 74 72 72 72 72 72 72 71 70 73 75 73 72 69 65 61 56 50 47 34 44 50 56
123 116 109 102 97 95 95 93 86 81 78 78 77 73 70 73 75 74 71 72 72 72 72 72 72 73 72 72 74 77 78 77 74 70 65 56 50 43 34 37 34 29 30
131 124 117 114 112 107 102 97 94 89 86 84 81 78 76 75 75 74 73 73 73 74 75 76 77 75 71 56 48 72 80 80 81 75 70 64 55 39 17 11 12 8 356
134 132 127 125 122 118 114 108 103 99 95 89 87 86 83 79 77 76 77 76 74 72 74 76 77 72 63 39 19 9 77 76 74 71 71 95 89 83 95 39 9 356 352
140 139 133 129 127 124 119 115 110 105 99 94 94 92 88 84 81 81 79 78 79 79 78 77 76 77 69 42 22 1 26 69 60 51 41 46 67 8 38 126 202 208 226
145 142 136 129 124 122 121 119 115 111 104 100 97 95 93 91 87 82 81 81 80 81 80 78 78 79 70 42 16 338 359 66 57 43 35 32 35 32 357 351 11 27 91
139 133 129 127 127 127 129 127 118 114 110 105 102 98 95 93 89 84 83 85 87 87 88 82 76 75 78 44 8 331 44 74 62 51 41 15 35 44 341 319 347 4 39
127 125 125 126 128 131 134 128 121 115 109 105 101 95 90 88 85 85 87 89 93 92 89 82 74 72 72 53 15 337 348 57 62 88 103 75 27 8 337 325 348 4 2
126 127 128 129 129 134 132 122 116 109 104 99 95 93 93 94 91 91 91 95 93 87 81 84 86 81 71 81 40 3 352 9 21 53 67 73 43 1 334 313 344 351 316
128 129 127 126 128 133 130 120 113 112 108 98 95 95 91 85 91 94 95 95 98 111 103 97 99 100 95 60 60 25 9 337 359 29 40 61 23 343 327 330 350 310 290
130 132 130 126 126 127 126 120 120 120 113 104 95 91 88 82 84 97 107 113 114 93 87 89 90 91 95 112 150 181 269 313 338 35 36 353 303 273 224 196 293 294 319
131 134 133 131 129 131 128 122 125 125 120 109 103 102 99 95 88 77 82 76 69 71 74 69 74 85 89 61 42 54 141 201 226 315 170 214 248 272 336 265 274 344 13
134 137 136 134 134 134 130 127 127 129 120 116 114 109 99 91 93 79 48 40 55 34 16 33 39 45 61 44 11 348 8 1 8 333 330 21 41 12 16 14 15 2 4
137 138 136 133 132 135 131 128 127 129 128 128 124 116 110 103 106 116 116 68 56 82 56 24 2 54 55 28 7 358 343 327 320 312 0 21 20 9 4 0 360 4 7